Terug naar catalogus

BREEZE-M DEB

LostHEO
NORAD 39933·DEBRIS·🇷🇺 Russia

Gelanceerd Feb 28, 2006 vanaf Baikonur Cosmodrome

Loading…

Volgende Passages (komende 24 uur)

TLE

VerouderdSource: Space-Track

Epoch: Mar 25, 2021, 01:50 UTC

1 39933U 06006DF  21084.07652881  .00000092  00000-0  18623-3 0  9995
2 39933  51.9818 292.0411 5121115 236.1406  64.3846  5.17735712201909

Volg BREEZE-M DEB in realtime met AllMySat

Download on the App Store